[[{"header":{"parameterUnit":"m.s-1","parameterCategory":1,"la1":30.2991,"la2":30.254,"lo1":-89.0895,"lo2":-89.0444,"dy":0.0017,"dx":0.0017,"nx":28,"ny":28,"refTime":"2025-06-21T21:00:00:Z","depth":0,"parameterNumber":2,"parameterNumberName":"U-component_of_WINDS"},"data":[0,0,0,0,0,0,0,0,0,0,0,0,0,0,0,0,0,0,0,0,0,0,0,0,0,0,0,0,0,0,0,0,0,0,0,0,0,0,0,0,0,0,0,0,0,0,0,0,0,0,0,0,0,0,0,0,0,0,-2.6677,-2.6676,0,-2.6622,-2.6622,-2.6621,-2.6536,-2.6534,-2.6533,-2.6531,-2.6476,-2.6476,-2.6476,0,0,0,0,0,0,0,0,0,0,0,0,0,-2.6709,-2.6708,-2.6677,-2.6676,-2.6675,-2.6622,-2.6622,-2.6621,-2.6536,-2.6534,-2.6532,-2.653,-2.6476,-2.6476,-2.6476,0,0,0,0,0,0,0,0,0,0,0,0,0,-2.6679,-2.6708,-2.6677,-2.6627,-2.6621,-2.6623,-2.6622,-2.6621,-2.6536,-2.6534,-2.6532,-2.653,-2.6476,-2.6476,-2.6476,-2.6522,0,0,-2.6476,-2.6476,0,0,0,0,0,0,0,0,-2.668,-2.6678,-2.6635,-2.663,-2.6624,-2.6583,-2.6613,-2.6588,-2.6537,-2.6569,-2.6531,-2.6528,-2.6514,-2.651,-2.6505,-2.6519,-2.6517,-2.6476,-2.6476,-2.6476,-2.6476,0,0,0,0,0,0,0,-2.6683,-2.6679,-2.6655,-2.6634,-2.6628,-2.6607,-2.6601,-2.6608,-2.6555,-2.6566,-2.6559,-2.6554,-2.651,-2.6505,-2.6503,-2.6516,-2.6476,-2.6476,-2.6476,-2.6476,-2.6567,-2.6569,0,0,0,0,0,0,-2.6692,-2.6682,-2.6657,-2.6653,-2.6647,-2.6609,-2.6601,-2.6599,-2.6554,-2.6545,-2.6556,-2.655,-2.6507,-2.6503,-2.6501,-2.6552,-2.6476,-2.6476,-2.6476,-2.6565,-2.6567,-2.657,0,0,0,0,0,0,-2.6693,-2.6691,-2.6659,-2.6666,-2.666,-2.6611,-2.6609,-2.6599,-2.6594,-2.6547,-2.6538,-2.6561,-2.6505,-2.6501,-2.6518,-2.6549,-2.6476,-2.6475,-2.6562,-2.6565,-2.6569,-2.6656,0,0,0,0,0,0,-2.6694,-2.6691,-2.6708,-2.6667,-2.666,-2.6676,-2.6611,-2.66,-2.6594,-2.6586,-2.6549,-2.6541,-2.6503,-2.6518,-2.6518,-2.6548,-2.6475,-2.6558,-2.6563,-2.6568,-2.665,-2.6662,-2.6672,0,0,0,0,0,-2.6696,-2.6734,-2.6709,-2.6706,-2.668,-2.6678,-2.6674,-2.663,-2.6597,-2.6613,-2.6584,-2.6542,-2.6547,-2.6521,-2.6519,-2.655,-2.6556,-2.6562,-2.6567,-2.6645,-2.6659,-2.6672,0,0,0,0,0,0,-2.6779,-2.6728,-2.6699,-2.6725,-2.6707,-2.6664,-2.6683,-2.6647,-2.6637,-2.663,-2.6575,-2.6568,-2.6592,-2.6572,-2.6545,-2.6593,-2.6545,-2.6551,-2.6604,-2.6618,-2.6629,-2.6633,-2.6475,0,0,0,0,0,-2.6801,-2.6804,-2.6759,-2.6786,-2.6778,-2.6733,-2.673,-2.6698,-2.6676,-2.6668,-2.6639,-2.6621,-2.6618,-2.6617,-2.6612,-2.6647,-2.6638,-2.6668,-2.6679,-2.6689,-2.6694,-2.6713,-2.6725,-2.6588,-2.6588,-2.6588,0,0,-2.6845,-2.6817,-2.6822,-2.6802,-2.6784,-2.6789,-2.6726,-2.6734,-2.6737,-2.6669,-2.6683,-2.6662,-2.6637,-2.6664,-2.6674,-2.6649,-2.673,-2.6696,-2.6704,-2.6704,-2.672,-2.6733,-2.6744,-2.6592,-2.6591,-2.6591,0,0,-2.6928,-2.6907,-2.6928,-2.6912,-2.6885,-2.6855,-2.6861,-2.6824,-2.6807,-2.682,-2.677,-2.6774,-2.677,-2.6755,-2.6747,-2.6828,-2.6789,-2.6828,-2.6886,-2.6905,-2.6916,-2.6925,-2.6954,-2.6965,-2.6833,-2.6833,-2.6834,0,-2.6986,-2.6991,-2.6944,-2.6954,-2.6948,-2.6888,-2.6909,-2.6896,-2.6869,-2.6866,-2.6839,-2.6834,-2.6813,-2.6836,-2.6856,-2.6852,-2.6857,-2.6831,-2.6918,-2.6927,-2.6935,-2.6962,-2.6973,-2.6838,-2.6838,-2.6837,-2.6837,0,-2.7064,-2.7068,-2.7089,-2.7065,-2.7061,-2.7077,-2.7033,-2.7035,-2.7004,-2.6977,-2.6993,-2.6966,-2.6955,-2.6959,-2.6928,-2.6978,-2.6963,-2.6928,-2.6878,-2.6953,-2.6978,-2.6988,-2.6845,-2.6844,-2.6842,-2.6841,0,0,-2.7195,-2.7147,-2.7155,-2.7145,-2.7113,-2.7115,-2.713,-2.712,-2.7122,-2.7107,-2.7118,-2.7118,-2.7086,-2.7077,-2.7045,-2.7061,-2.7128,-2.7024,-2.7022,-2.7044,-2.7182,-2.7209,-2.7221,-2.7103,-2.7105,-2.7106,-2.7184,0,-2.7271,-2.7292,-2.7252,-2.7283,-2.7287,-2.7232,-2.7245,-2.7227,-2.7203,-2.7204,-2.7178,-2.7179,-2.7136,-2.713,-2.7144,-2.7117,-2.7155,-2.7111,-2.7113,-2.7114,-2.712,-2.7234,-2.7261,-2.7336,-2.7194,-2.7195,-2.7196,0,-2.7361,-2.7352,-2.7383,-2.7351,-2.7351,-2.7364,-2.7352,-2.7353,-2.7333,-2.7315,-2.7306,-2.7269,-2.7282,-2.7236,-2.7254,-2.7225,-2.7224,-2.7211,-2.7213,-2.721,-2.7159,-2.7234,-2.7359,-2.737,-2.7211,-2.721,-2.7209,0,-2.7454,-2.7449,-2.7467,-2.746,-2.7423,-2.7433,-2.7418,-2.7396,-2.7393,-2.7383,-2.7381,-2.7373,-2.7369,-2.7364,-2.7326,-2.7296,-2.7349,-2.7299,-2.7335,-2.7336,-2.7347,-2.7347,-2.7473,-2.7348,-2.7348,-2.7348,-2.7348,0,-2.7543,-2.7564,-2.7509,-2.752,-2.7544,-2.7498,-2.7522,-2.7502,-2.7483,-2.749,-2.7443,-2.7451,-2.74,-2.7404,-2.7374,-2.7394,-2.7393,-2.7379,-2.737,-2.7382,-2.7384,-2.738,-2.7373,-2.7351,-2.735,-2.735,-2.7349,0,-2.7649,-2.7613,-2.7629,-2.7594,-2.7586,-2.7604,-2.7574,-2.7584,-2.7558,-2.7568,-2.7568,-2.7528,-2.7529,-2.7491,-2.7485,-2.7465,-2.7498,-2.7481,-2.7505,-2.7499,-2.7536,-2.7533,-2.7663,-2.7678,-2.7545,-2.7547,-2.7548,0,-2.7707,-2.7723,-2.7689,-2.7691,-2.7679,-2.7682,-2.7679,-2.7635,-2.7635,-2.7614,-2.7627,-2.7624,-2.762,-2.7625,-2.7595,-2.7591,-2.7573,-2.7619,-2.7572,-2.7584,-2.7573,-2.7573,-2.7574,-2.7628,-2.763,-2.7631,-2.7632,0,-2.7815,-2.7797,-2.7794,-2.7786,-2.7785,-2.7776,-2.7765,-2.7769,-2.7722,-2.7724,-2.7725,-2.7722,-2.7716,-2.7714,-2.7705,-2.769,-2.7654,-2.7648,-2.7656,-2.7668,-2.7681,-2.7674,-2.7531,-2.7645,-2.7643,-2.7642,-2.7642,-2.7641,-2.7898,-2.791,-2.7889,-2.7889,-2.7876,-2.7867,-2.7875,-2.7851,-2.7851,-2.7842,-2.7817,-2.7823,-2.7805,-2.7788,-2.7777,-2.7781,-2.7759,-2.777,-2.7773,-2.7776,-2.7783,-2.7681,-2.778,-2.7779,-2.7779,-2.7779,-2.7778,0,-2.8003,-2.7987,-2.7988,-2.7974,-2.7974,-2.7941,-2.7927,-2.793,-2.7935,-2.7921,-2.7918,-2.792,-2.7919,-2.7891,-2.7887,-2.7896,-2.788,-2.7896,-2.7895,-2.7892,-2.7804,-2.7797,-2.791,-2.791,-2.791,-2.791,-2.791,-2.791,-2.8058,-2.8076,-2.8056,-2.8069,-2.8052,-2.8058,-2.8053,-2.8045,-2.8034,-2.8038,-2.8037,-2.8019,-2.8,-2.7994,-2.7992,-2.7984,-2.7985,-2.8007,-2.7994,-2.7911,-2.7898,-2.7886,-2.788,-2.8008,-2.8008,-2.8081,-2.8082,-2.8083]},{"header":{"parameterUnit":"m.s-1","parameterCategory":1,"la1":30.2991,"la2":30.254,"lo1":-89.0895,"lo2":-89.0444,"dy":0.0017,"dx":0.0017,"nx":28,"ny":28,"refTime":"2025-06-21T21:00:00:Z","depth":0,"parameterNumber":3,"parameterNumberName":"V-component_of_WINDS"},"data":[0,0,0,0,0,0,0,0,0,0,0,0,0,0,0,0,0,0,0,0,0,0,0,0,0,0,0,0,0,0,0,0,0,0,0,0,0,0,0,0,0,0,0,0,0,0,0,0,0,0,0,0,0,0,0,0,0,0,3.0402,3.0402,0,3.0403,3.0403,3.0403,3.0453,3.0455,3.0456,3.0457,3.0453,3.0452,3.045,0,0,0,0,0,0,0,0,0,0,0,0,0,3.0437,3.0436,3.0402,3.0402,3.0402,3.0403,3.0403,3.0403,3.0453,3.0455,3.0456,3.0458,3.0453,3.0452,3.045,0,0,0,0,0,0,0,0,0,0,0,0,0,3.0428,3.0436,3.0402,3.0427,3.0429,3.0403,3.0403,3.0403,3.0453,3.0455,3.0457,3.0458,3.0454,3.0452,3.045,3.0398,0,0,3.0444,3.0443,0,0,0,0,0,0,0,0,3.0429,3.0427,3.0423,3.0425,3.0428,3.043,3.0414,3.0401,3.0452,3.0444,3.0457,3.0459,3.0443,3.0442,3.0438,3.0398,3.0398,3.0444,3.0443,3.0442,3.0441,0,0,0,0,0,0,0,3.0429,3.0427,3.0402,3.0423,3.0426,3.0437,3.0438,3.0412,3.0432,3.0444,3.0448,3.0448,3.0445,3.044,3.0438,3.0398,3.0444,3.0442,3.0441,3.044,3.0316,3.0314,0,0,0,0,0,0,3.0427,3.0427,3.0402,3.0402,3.0433,3.0434,3.0435,3.0427,3.0433,3.0436,3.0446,3.045,3.0442,3.0441,3.0438,3.0378,3.0442,3.044,3.0439,3.0318,3.0315,3.0313,0,0,0,0,0,0,3.0428,3.0425,3.0402,3.0416,3.0414,3.0432,3.0422,3.0426,3.0421,3.0434,3.0437,3.0438,3.0444,3.0441,3.0408,3.0379,3.0439,3.0437,3.032,3.0317,3.0314,3.0257,0,0,0,0,0,0,3.0429,3.0424,3.0406,3.0415,3.0413,3.0373,3.042,3.0425,3.0418,3.0424,3.0427,3.0429,3.0445,3.0411,3.0406,3.0377,3.0436,3.0323,3.0319,3.0315,3.0262,3.0253,3.0245,0,0,0,0,0,3.043,3.0388,3.0405,3.0401,3.039,3.0371,3.037,3.039,3.0416,3.0397,3.0405,3.0429,3.0383,3.0407,3.0403,3.0372,3.0325,3.032,3.0316,3.0266,3.0255,3.0245,0,0,0,0,0,0,3.0372,3.039,3.0408,3.0369,3.0368,3.038,3.0356,3.0378,3.0368,3.0373,3.0398,3.0398,3.0361,3.0364,3.039,3.0323,3.0359,3.0353,3.0322,3.0312,3.0303,3.0303,3.0434,0,0,0,0,0,3.0356,3.034,3.0356,3.0319,3.0319,3.0337,3.033,3.0346,3.0346,3.0345,3.0351,3.0349,3.0334,3.0323,3.031,3.0263,3.0264,3.024,3.0232,3.0224,3.0218,3.0194,3.0183,3.0298,3.0298,3.0298,0,0,3.032,3.0328,3.0316,3.0308,3.031,3.0292,3.0337,3.0316,3.0302,3.0341,3.0311,3.0316,3.0314,3.0274,3.0257,3.0275,3.0188,3.0218,3.0213,3.0211,3.0188,3.0177,3.0167,3.0295,3.0295,3.0296,0,0,3.0246,3.025,3.0221,3.0222,3.0225,3.0238,3.0231,3.024,3.0245,3.0216,3.0245,3.0229,3.0202,3.0201,3.0196,3.0123,3.0145,3.0118,3.0073,3.0048,3.0039,3.0032,3.0005,2.9995,3.0113,3.0113,3.0112,0,3.02,3.0176,3.0202,3.018,3.0176,3.0213,3.0183,3.0182,3.018,3.0175,3.0196,3.0165,3.0167,3.0127,3.011,3.0105,3.0097,3.0117,3.0039,3.0031,3.0024,2.9999,2.9989,3.0109,3.011,3.011,3.011,0,3.012,3.0103,3.0078,3.0078,3.0071,3.0044,3.0065,3.0055,3.0072,3.0083,3.0052,3.0056,3.0045,3.0037,3.0053,3.0,3.0011,3.0035,3.0071,3.001,2.9986,2.9977,3.0104,3.0106,3.0107,3.0107,0,0,3.0007,3.0023,3.0014,3.0014,3.0021,3.0007,2.9983,2.9974,2.9964,2.9962,2.9941,2.9919,2.9942,2.9937,2.9953,2.9932,2.9874,2.9959,2.996,2.9942,2.9815,2.9796,2.9784,2.9889,2.9888,2.9886,2.9815,0,2.9935,2.9895,2.9919,2.9875,2.9859,2.9896,2.9874,2.9875,2.9885,2.9872,2.9882,2.9866,2.9898,2.9895,2.9876,2.9885,2.9848,2.9891,2.9868,2.9867,2.9866,2.9772,2.9752,2.9684,2.9806,2.9804,2.9803,0,2.9845,2.9841,2.9796,2.9807,2.9801,2.9782,2.9776,2.9764,2.9766,2.9774,2.977,2.9791,2.9767,2.9804,2.977,2.9799,2.9791,2.9794,2.9792,2.979,2.983,2.9766,2.9663,2.9652,2.9789,2.9791,2.9792,0,2.9766,2.975,2.9721,2.972,2.9733,2.9718,2.9722,2.9726,2.972,2.9714,2.971,2.9701,2.9696,2.9688,2.9707,2.9732,2.967,2.9709,2.9675,2.9674,2.9659,2.9659,2.9552,2.9656,2.9656,2.9656,2.9656,0,2.9682,2.9653,2.9686,2.9668,2.9637,2.9664,2.9632,2.9639,2.9643,2.9627,2.9657,2.9641,2.9667,2.9653,2.9667,2.9636,2.9634,2.9639,2.9643,2.9636,2.9635,2.963,2.9634,2.9654,2.9654,2.9655,2.9655,0,2.9588,2.961,2.9581,2.9596,2.9599,2.9575,2.9587,2.957,2.9583,2.9562,2.9558,2.9577,2.9562,2.9581,2.9566,2.9576,2.9535,2.9546,2.9534,2.9537,2.9502,2.9505,2.9386,2.9372,2.9486,2.9485,2.9484,0,2.9533,2.9512,2.9525,2.9517,2.952,2.9507,2.9501,2.9528,2.952,2.9522,2.9505,2.9493,2.9485,2.9459,2.9471,2.946,2.9471,2.943,2.9469,2.9463,2.9469,2.947,2.9467,2.9421,2.942,2.9419,2.9418,0,2.9432,2.9444,2.9435,2.9431,2.9424,2.9421,2.942,2.9411,2.9439,2.9429,2.9415,2.9409,2.9396,2.9383,2.9377,2.938,2.9403,2.9406,2.9398,2.9389,2.9383,2.9385,2.9511,2.9408,2.9409,2.941,2.941,2.9411,2.9355,2.9338,2.9345,2.9335,2.9338,2.9337,2.9322,2.9334,2.9324,2.9317,2.9333,2.9315,2.9318,2.9312,2.9312,2.9298,2.9315,2.9303,2.9299,2.9296,2.929,2.9387,2.9297,2.9297,2.9297,2.9298,2.9298,0,2.9255,2.9262,2.9252,2.9251,2.9243,2.9269,2.927,2.9261,2.9245,2.9247,2.9239,2.9224,2.9212,2.9224,2.9214,2.92,2.9211,2.9197,2.9197,2.9197,2.9276,2.9284,2.9189,2.9189,2.9189,2.9189,2.9189,2.9189,2.9201,2.9174,2.9187,2.9162,2.9169,2.9153,2.9152,2.9151,2.9153,2.9134,2.9126,2.9134,2.914,2.9132,2.9122,2.9126,2.912,2.9102,2.9109,2.9181,2.9192,2.9202,2.921,2.9101,2.9101,2.9032,2.9032,2.9031]}]]